Погода в Шумятине

Россия / Калужская область     54°59′36″N   36°20′10″E
темп.,
°C
ветер,
м/с
пор.,
м/с
влажн.,
%
обл.,
%
осадки,
мм/ч
давл.,
гПа
погр.,
м
13 июня, вс
вс1300:00+13юз229299 0.0 100722
03:00+12юз22940 0.0 100732
06:00+13ююз24930 0.0 1007112
09:00+18ююз34770 0.0 1007567
12:00+21ююз34635 0.0 10061378
15:00+23ююз45588 0.0 10061679
18:00+21ююз47745 0.4 1006268
21:00+16ююв3389100 0.8 100834
14 июня, пн
пн1400:00+15ю35955 0.0 100975
03:00+14ююз2396100 0.0 101040
06:00+15ю249534 0.0 1012141
09:00+19ююз347949 0.0 1013523
12:00+23ююз446539 0.0 10141147
15:00+24ююз33595 0.0 10141560
18:00+24ююз226810 0.0 10141008
21:00+18зюз228339 0.4 101516
15 июня, вт
вт1500:00+16з22905 0.0 101511
03:00+15сз11925 0.0 101511
06:00+17зсз11895 0.0 101548
09:00+21сз22755 0.0 1015473
12:00+24з22634 0.1 10131148
15:00+25зюз125556 0.5 10111498
18:00+22з357690 0.1 1010128
21:00+18ссз228240 0.4 101115
16 июня, ср
ср1600:00+15ссз34913 0.0 101158
03:00+14ссз34910 0.0 101161
06:00+15ссз27891 0.0 1012207
09:00+19ссз5669100 0.0 1013537
12:00+21ссз566771 0.1 10131297
15:00+22с67610 0.6 10141647
18:00+20ссз59635 0.0 1015505
21:00+15с487444 0.0 1017127
17 июня, чт
чт1700:00+12с38695 0.0 1020122
03:00+11с37750 0.0 1022107
06:00+11ссв37820 0.0 1023179
09:00+17ссв46570 0.0 1024569
12:00+20ссв45480 0.0 10251444
15:00+22ссв45460 0.0 10241707
18:00+21св35605 0.0 1025451
21:00+15св22735 0.0 102613